Content
SEND FEEDBACK

Daily
Averages
Monthly
Summary
United States of America

CHELSEA, MASSACHUSETTS


Home > North America > United States > Massachusetts
Elevation: 30 feet     Latitude: 42 24N     Longitude: 071 06W

WEATHER
 
SELECT A DAY
Number of Records: 205,467;   Date Range: 1/1/95 - 10/24/14
 
SHARE

PRINT THIS DATA

[ ← Previous Day ]
WEATHER ALMANAC - APRIL 18, 2013
[ Next Day → ]
[ °C ]   °F
Weather ElementAverageHighLow
Temperature52.2 °F62.6 °F (3:15 pm)46 °F (1:54 am)
Dewpoint35.8 °F43 °F (11:54 pm)28.9 °F (6:54 pm)
Humidity55.2 %71 % (6:54 am)34 % (3:15 pm)
Barometer30.32 in30.44 in (7:54 am)30.16 in (11:54 pm)
Wind Speed13.9 mph24.2 mph (1:54 pm)
Wind Gust25.3 mph (5:54 pm)
Weather ElementAverage
Visibility10 mi
Wind DirectionESE (129.2 °)

Weather ElementTotal
Precipitation---
Heating Degree Days10.7 (Base 65)
Growing Degree Days4.3 (Base 50)
Averaged from 25 records on April 18, 2013
WEATHER CONDITIONS BREAKOUT
WIND DIRECTION BREAKOUT
WEATHER BY HOUR - APRIL 18, 2013
[ °C ]   °F
Local TimeTemperatureDewpointHumidityBarometerVisibilityWind DirectionWind SpeedGust SpeedPrecipitationEventsConditions
1:54 AM46.0 °F35.1 °F66 %30.37 in10.0 miNE (50°)6.9 mphClear
2:54 AM46.9 °F37.0 °F68 %30.35 in10.0 miEast (90°)10.4 mphClear
3:54 AM46.0 °F33.1 °F61 %30.40 in10.0 miNE (50°)6.9 mphClear
4:54 AM46.0 °F32.0 °F58 %30.41 in10.0 miNE (50°)6.9 mphClear
5:54 AM46.0 °F35.1 °F66 %30.42 in10.0 miENE (70°)9.2 mphClear
6:54 AM46.0 °F37.0 °F71 %30.42 in10.0 miEast (90°)9.2 mphClear
7:54 AM48.0 °F37.0 °F66 %30.44 in10.0 miEast (80°)9.2 mphClear
8:54 AM48.9 °F37.0 °F64 %30.44 in10.0 miEast (100°)9.2 mphClear
9:54 AM50.0 °F37.0 °F61 %30.43 in10.0 miEast (100°)15.0 mphClear
10:54 AM52.0 °F36.0 °F54 %30.43 in10.0 miEast (90°)15.0 mphClear
11:54 AM53.1 °F35.1 °F50 %30.40 in10.0 miESE (110°)21.9 mphClear
12:54 PM55.0 °F35.1 °F47 %30.37 in10.0 miESE (110°)23.0 mphOvercast
1:54 PM55.0 °F37.0 °F51 %30.34 in10.0 miESE (110°)24.2 mphScattered Clouds
2:54 PM57.0 °F37.9 °F49 %30.30 in10.0 miSE (130°)13.8 mphMostly Cloudy
3:15 PM62.6 °F33.8 °F34 %30.29 in10.0 miSouth (180°)15.0 mphMostly Cloudy
3:54 PM61.0 °F33.1 °F35 %30.29 in10.0 miSouth (180°)16.1 mphMostly Cloudy
4:54 PM59.0 °F30.9 °F35 %30.27 in10.0 miSouth (170°)17.3 mphMostly Cloudy
5:54 PM57.0 °F30.9 °F37 %30.27 in10.0 miSouth (170°)17.3 mph25.3 mphMostly Cloudy
6:54 PM55.0 °F28.9 °F37 %30.26 in10.0 miSouth (170°)13.8 mphMostly Cloudy
7:54 PM54.0 °F33.1 °F45 %30.24 in10.0 miSouth (170°)12.7 mphMostly Cloudy
8:54 PM52.0 °F37.9 °F59 %30.23 in10.0 miSouth (180°)16.1 mphScattered Clouds
9:54 PM52.0 °F39.0 °F61 %30.21 in10.0 miSouth (190°)20.7 mphMostly Cloudy
10:54 PM52.0 °F41.0 °F66 %30.19 in10.0 miSSW (200°)12.7 mphOvercast
11:08 PM51.8 °F41.0 °F67 %30.18 in10.0 miSSW (200°)15.0 mphOvercast
11:54 PM52.0 °F43.0 °F71 %30.16 in10.0 miSouth (190°)10.4 mphOvercast
Hourly data recorded from KBOS, located miles away from Chelsea, Massachusetts







STORIES FROM OUR PARTNERS